ACA744 CYYZ-OMDB

Flight info

Callsign ACA744
Flight time N/A
Altitude 31000
Route VERDO7 IPTOS Q921 AGLUK DCT ANCER DCT HOIST/M085F330 DCT 57N050W 58N040W 58N030W 57N020W DCT PIKIL DCT SOVED/N0488F330 DCT LUTOV DCT MAKUX/N0488F350 DCT SOSIM L15 MOTOX DCT RUCAC DCT LESDO DCT ETINO DCT DEVDI DCT RIPUS DCT RESIA DCT BELOV DCT LATAN DCT SALUN N705 MMA/N0489F370 P751 DASUM Y234 FYM M872 BDB Y214 RAPMA DCT KUVSO DCT KATIT DCT PEKEM M628 RIGIL G783 ELUDA/N0497F350 G783 ASPED Q308 KIPOK Q568 IMPED
Aircraft B77W/H-SDE1E2E3FGHIJ2J3J4J5M1RWXY/LB1D1

Departure

Time N/A
Airport Toronto Pearson International Airport (CYYZ)

Arrival

Time 2026-04-20 18:24
Airport Dubai International Airport (OMDB)
Time Latitude Longitude Altitude Speed Heading
2026-04-20 16:15 25.09110 38.65846 36812 ft 566 kts 126°
2026-04-20 16:15 25.07178 38.69622 36837 ft 565 kts 126°
2026-04-20 16:15 25.03301 38.77178 36818 ft 566 kts 126°
2026-04-20 16:16 24.99423 38.84734 36808 ft 565 kts 126°
2026-04-20 16:16 24.95552 38.92262 36833 ft 562 kts 127°
2026-04-20 16:17 24.91703 38.99690 36835 ft 560 kts 127°
2026-04-20 16:17 24.87828 39.07136 36847 ft 560 kts 127°
2026-04-20 16:18 24.83955 39.14579 36852 ft 559 kts 127°
2026-04-20 16:18 24.80087 39.22007 36857 ft 559 kts 127°
2026-04-20 16:19 24.76218 39.29429 36866 ft 559 kts 126°
2026-04-20 16:19 24.72370 39.36795 36875 ft 559 kts 126°
2026-04-20 16:20 24.68485 39.44228 36872 ft 560 kts 126°
2026-04-20 16:20 24.64600 39.51648 36892 ft 560 kts 126°
2026-04-20 16:21 24.60705 39.59074 36885 ft 561 kts 126°
2026-04-20 16:21 24.56922 39.66606 36880 ft 567 kts 119°
2026-04-20 16:22 24.54399 39.74836 36892 ft 575 kts 106°
2026-04-20 16:22 24.53277 39.83554 36893 ft 577 kts 96°
2026-04-20 16:23 24.52557 39.92329 36889 ft 577 kts 96°
2026-04-20 16:23 24.51779 40.01088 36880 ft 576 kts 97°
2026-04-20 16:24 24.50930 40.09837 36875 ft 575 kts 97°
2026-04-20 16:24 24.50063 40.18559 36883 ft 574 kts 97°
2026-04-20 16:25 24.49203 40.27260 36873 ft 573 kts 97°
2026-04-20 16:25 24.48351 40.35902 36880 ft 572 kts 97°
2026-04-20 16:26 24.47489 40.44582 36879 ft 571 kts 97°
2026-04-20 16:26 24.46622 40.53242 36880 ft 571 kts 97°
2026-04-20 16:27 24.45749 40.61916 36878 ft 571 kts 97°
2026-04-20 16:27 24.44880 40.70590 36882 ft 572 kts 97°
2026-04-20 16:28 24.44008 40.79266 36874 ft 572 kts 97°
2026-04-20 16:28 24.43135 40.87902 36884 ft 573 kts 97°
2026-04-20 16:29 24.42242 40.96643 36882 ft 573 kts 97°
2026-04-20 16:29 24.41352 41.05332 36883 ft 572 kts 97°
2026-04-20 16:30 24.40458 41.13945 36916 ft 571 kts 98°
2026-04-20 16:30 24.39543 41.22603 36928 ft 570 kts 98°
2026-04-20 16:31 24.38625 41.31247 36930 ft 570 kts 98°
2026-04-20 16:31 24.37710 41.39836 36932 ft 569 kts 97°
2026-04-20 16:32 24.36787 41.48446 36936 ft 568 kts 98°
2026-04-20 16:32 24.35860 41.57064 36935 ft 567 kts 97°
2026-04-20 16:33 24.34930 41.65650 36933 ft 566 kts 97°
2026-04-20 16:33 24.33997 41.74223 36930 ft 565 kts 97°
2026-04-20 16:34 24.32962 41.82706 36914 ft 564 kts 102°
2026-04-20 16:34 24.30972 41.91001 36936 ft 561 kts 109°
2026-04-20 16:35 24.28724 41.99200 36928 ft 562 kts 109°
2026-04-20 16:35 24.26505 42.07433 36917 ft 563 kts 108°
2026-04-20 16:36 24.24323 42.15674 36931 ft 563 kts 108°
2026-04-20 16:36 24.22142 42.23933 36931 ft 564 kts 108°
2026-04-20 16:37 24.19954 42.32186 36932 ft 564 kts 109°
2026-04-20 16:37 24.17753 42.40449 36932 ft 565 kts 109°
2026-04-20 16:38 24.15563 42.48655 36913 ft 565 kts 109°
2026-04-20 16:38 24.13354 42.56910 36931 ft 565 kts 109°
2026-04-20 16:39 24.11139 42.65169 36920 ft 565 kts 109°
2026-04-20 16:39 24.08921 42.73429 36915 ft 565 kts 109°
2026-04-20 16:40 24.06689 42.81703 36910 ft 566 kts 109°
2026-04-20 16:40 24.04473 42.89915 36919 ft 566 kts 109°
2026-04-20 16:41 24.02238 42.98189 36927 ft 567 kts 109°
2026-04-20 16:41 23.99998 43.06469 36920 ft 567 kts 109°
2026-04-20 16:42 23.97750 43.14756 36929 ft 567 kts 108°
2026-04-20 16:42 23.95500 43.23028 36908 ft 568 kts 108°
2026-04-20 16:43 23.93245 43.31304 36928 ft 568 kts 109°
2026-04-20 16:43 23.90982 43.39581 36911 ft 568 kts 109°
2026-04-20 16:44 23.88715 43.47864 36913 ft 569 kts 109°
2026-04-20 16:44 23.86454 43.56104 36911 ft 570 kts 109°
2026-04-20 16:45 23.84168 43.64405 36922 ft 570 kts 109°
2026-04-20 16:45 23.81879 43.72712 36898 ft 571 kts 109°
2026-04-20 16:46 23.79584 43.81017 36918 ft 571 kts 109°
2026-04-20 16:46 23.77521 43.89350 36915 ft 573 kts 102°
2026-04-20 16:47 23.76593 43.97984 36913 ft 573 kts 94°
2026-04-20 16:47 23.76043 44.06670 36902 ft 574 kts 94°
2026-04-20 16:48 23.75443 44.15358 36911 ft 574 kts 94°
2026-04-20 16:48 23.74788 44.24044 36916 ft 574 kts 94°
2026-04-20 16:49 23.74118 44.32718 36907 ft 574 kts 94°
2026-04-20 16:49 23.73449 44.41402 36904 ft 573 kts 94°
2026-04-20 16:50 23.72779 44.50071 36908 ft 573 kts 94°
2026-04-20 16:50 23.72106 44.58734 36905 ft 572 kts 94°
2026-04-20 16:51 23.71424 44.67386 36906 ft 572 kts 94°
2026-04-20 16:51 23.70746 44.75977 36907 ft 572 kts 94°
2026-04-20 16:52 23.70060 44.84617 36896 ft 570 kts 94°
2026-04-20 16:52 23.69374 44.93237 36899 ft 570 kts 94°
2026-04-20 16:53 23.68674 45.01859 36903 ft 570 kts 94°
2026-04-20 16:53 23.67971 45.10467 36908 ft 570 kts 94°
2026-04-20 16:54 23.67266 45.19078 36895 ft 570 kts 94°
2026-04-20 16:54 23.66557 45.27687 36893 ft 570 kts 94°
2026-04-20 16:55 23.65967 45.34851 36891 ft 570 kts 94°
2026-04-20 16:55 23.65248 45.43475 36888 ft 571 kts 94°
2026-04-20 16:56 23.64408 45.53506 36885 ft 572 kts 94°
2026-04-20 16:56 23.63804 45.60695 36890 ft 572 kts 94°
2026-04-20 16:57 23.63071 45.69350 36888 ft 573 kts 94°
2026-04-20 16:57 23.62332 45.78004 36890 ft 573 kts 94°
2026-04-20 16:58 23.61589 45.86672 36890 ft 573 kts 94°
2026-04-20 16:58 23.60843 45.95334 36895 ft 574 kts 95°
2026-04-20 16:59 23.60090 46.04007 36888 ft 574 kts 95°
2026-04-20 16:59 23.59337 46.12624 36882 ft 574 kts 95°
2026-04-20 17:00 23.58194 46.25623 36882 ft 573 kts 95°
2026-04-20 17:01 23.57427 46.34265 36864 ft 572 kts 95°
2026-04-20 17:01 23.56654 46.42889 36870 ft 571 kts 95°
2026-04-20 17:02 23.55881 46.51499 36868 ft 570 kts 94°
2026-04-20 17:02 23.55100 46.60091 36862 ft 569 kts 95°
2026-04-20 17:03 23.54306 46.68671 36857 ft 568 kts 95°
2026-04-20 17:03 23.53508 46.77243 36858 ft 567 kts 95°
2026-04-20 17:04 23.52713 46.85747 36864 ft 567 kts 95°
2026-04-20 17:04 23.51911 46.94297 36861 ft 566 kts 95°
2026-04-20 17:05 23.51107 47.02817 36861 ft 565 kts 94°
2026-04-20 17:05 23.50295 47.11352 36861 ft 565 kts 94°
2026-04-20 17:06 23.49482 47.19857 36864 ft 564 kts 95°
2026-04-20 17:06 23.48665 47.28363 36862 ft 564 kts 94°
2026-04-20 17:07 23.47845 47.36850 36858 ft 563 kts 94°
2026-04-20 17:07 23.47021 47.45343 36861 ft 563 kts 94°
2026-04-20 17:08 23.46199 47.53762 36861 ft 562 kts 94°
2026-04-20 17:08 23.45373 47.62237 36862 ft 563 kts 95°
2026-04-20 17:09 23.44543 47.70724 36862 ft 563 kts 95°
2026-04-20 17:09 23.43711 47.79200 36862 ft 563 kts 95°
2026-04-20 17:10 23.42871 47.87681 36857 ft 562 kts 95°
2026-04-20 17:10 23.42028 47.96155 36850 ft 563 kts 95°
2026-04-20 17:11 23.41188 48.04571 36856 ft 563 kts 94°
2026-04-20 17:11 23.40336 48.13048 36854 ft 563 kts 94°
2026-04-20 17:12 23.39481 48.21513 36851 ft 562 kts 94°
2026-04-20 17:12 23.38621 48.29978 36852 ft 562 kts 94°
2026-04-20 17:13 23.37952 48.38445 36848 ft 560 kts 90°
2026-04-20 17:13 23.37638 48.46901 36855 ft 559 kts 89°
2026-04-20 17:14 23.37347 48.55352 36852 ft 559 kts 89°
2026-04-20 17:14 23.37016 48.63793 36851 ft 558 kts 90°
2026-04-20 17:15 23.36663 48.72247 36853 ft 559 kts 90°
2026-04-20 17:15 23.36305 48.80682 36850 ft 558 kts 90°
2026-04-20 17:16 23.35949 48.89136 36853 ft 558 kts 90°
2026-04-20 17:16 23.35590 48.97532 36853 ft 558 kts 90°
2026-04-20 17:17 23.35208 49.05972 36852 ft 558 kts 91°
2026-04-20 17:17 23.34190 49.14367 36859 ft 559 kts 97°
2026-04-20 17:18 23.32925 49.22715 36853 ft 559 kts 97°
2026-04-20 17:18 23.31671 49.31061 36855 ft 559 kts 97°
2026-04-20 17:19 23.30457 49.39370 36851 ft 558 kts 97°
2026-04-20 17:19 23.29249 49.47715 36850 ft 558 kts 97°
2026-04-20 17:20 23.28040 49.56054 36850 ft 558 kts 97°
2026-04-20 17:20 23.26820 49.64397 36854 ft 558 kts 97°
2026-04-20 17:21 23.25595 49.72728 36851 ft 557 kts 97°
2026-04-20 17:21 23.24367 49.81058 36850 ft 557 kts 97°
2026-04-20 17:22 23.23144 49.89328 36853 ft 558 kts 97°
2026-04-20 17:22 23.21906 49.97663 36849 ft 558 kts 97°
2026-04-20 17:23 23.20664 50.05985 36857 ft 557 kts 97°
2026-04-20 17:23 23.19418 50.14318 36851 ft 557 kts 97°
2026-04-20 17:24 23.18170 50.22622 36852 ft 556 kts 97°
2026-04-20 17:24 23.16922 50.30908 36851 ft 556 kts 97°
2026-04-20 17:25 23.15668 50.39194 36852 ft 555 kts 97°
2026-04-20 17:25 23.14417 50.47421 36852 ft 555 kts 97°
2026-04-20 17:26 23.13156 50.55701 36850 ft 555 kts 97°
2026-04-20 17:26 23.11890 50.63969 36851 ft 554 kts 97°
2026-04-20 17:27 23.10622 50.72228 36851 ft 554 kts 97°
2026-04-20 17:27 23.09351 50.80481 36851 ft 554 kts 97°
2026-04-20 17:28 23.08073 50.88743 36852 ft 554 kts 97°
2026-04-20 17:28 23.06799 50.96947 36854 ft 554 kts 97°
2026-04-20 17:29 23.05516 51.05189 36854 ft 554 kts 97°
2026-04-20 17:29 23.04229 51.13430 36851 ft 553 kts 97°
2026-04-20 17:30 23.02941 51.21663 36854 ft 553 kts 97°
2026-04-20 17:30 23.01644 51.29890 36854 ft 552 kts 97°
2026-04-20 17:31 23.00347 51.38110 36849 ft 552 kts 97°
2026-04-20 17:31 22.99044 51.46330 36843 ft 552 kts 97°
2026-04-20 17:32 22.97740 51.54542 36844 ft 552 kts 97°
2026-04-20 17:32 22.96429 51.62748 36840 ft 551 kts 97°
2026-04-20 17:33 22.95127 51.70885 36853 ft 551 kts 97°
2026-04-20 17:33 22.93810 51.79081 36861 ft 550 kts 97°
2026-04-20 17:34 22.92491 51.87267 36862 ft 550 kts 97°
2026-04-20 17:34 22.91168 51.95449 36861 ft 551 kts 97°
2026-04-20 17:35 22.89841 52.03637 36863 ft 550 kts 97°
2026-04-20 17:35 22.88516 52.11765 36866 ft 549 kts 97°
2026-04-20 17:36 22.87184 52.19932 36857 ft 548 kts 97°
2026-04-20 17:36 22.85849 52.28065 36856 ft 547 kts 97°
2026-04-20 17:37 22.84515 52.36189 36862 ft 547 kts 97°
2026-04-20 17:37 22.83177 52.44299 36854 ft 547 kts 97°
2026-04-20 17:38 22.82196 52.52445 36846 ft 542 kts 88°
2026-04-20 17:38 22.82043 52.59214 36857 ft 540 kts 86°
2026-04-20 17:39 22.81886 52.68692 36851 ft 541 kts 87°
2026-04-20 17:39 22.81700 52.76850 36844 ft 541 kts 87°
2026-04-20 17:40 22.81521 52.83637 36837 ft 542 kts 87°
2026-04-20 17:40 22.81288 52.91810 36838 ft 541 kts 88°
2026-04-20 17:41 22.81061 52.99976 36828 ft 541 kts 87°
2026-04-20 17:41 22.80844 53.08126 36836 ft 540 kts 87°
2026-04-20 17:42 22.80611 53.16267 36836 ft 540 kts 88°
2026-04-20 17:42 22.80362 53.24394 36836 ft 539 kts 88°
2026-04-20 17:43 22.80117 53.32464 36830 ft 538 kts 88°
2026-04-20 17:43 22.79880 53.40563 36829 ft 537 kts 88°
2026-04-20 17:44 22.79638 53.48655 36839 ft 536 kts 87°
2026-04-20 17:44 22.79392 53.56740 36842 ft 536 kts 88°
2026-04-20 17:45 22.79139 53.64821 36842 ft 536 kts 88°
2026-04-20 17:45 22.78879 53.72891 36845 ft 535 kts 88°
2026-04-20 17:46 22.78619 53.80954 36845 ft 536 kts 88°
2026-04-20 17:46 22.78353 53.88980 36841 ft 536 kts 88°
2026-04-20 17:47 22.78168 53.97058 36837 ft 533 kts 83°
2026-04-20 17:47 22.78991 54.04980 36848 ft 523 kts 72°
2026-04-20 17:48 22.80606 54.12650 36847 ft 521 kts 71°
2026-04-20 17:48 22.82220 54.20321 36839 ft 522 kts 71°
2026-04-20 17:49 22.83790 54.27999 36841 ft 521 kts 72°
2026-04-20 17:49 22.85326 54.35627 36844 ft 521 kts 72°
2026-04-20 17:50 22.86869 54.43313 36841 ft 520 kts 72°
2026-04-20 17:50 22.88404 54.50965 36843 ft 519 kts 72°
2026-04-20 17:51 22.89936 54.58615 36843 ft 518 kts 72°
2026-04-20 17:51 22.91459 54.66248 36843 ft 518 kts 72°
2026-04-20 17:52 22.92979 54.73882 36846 ft 518 kts 72°
2026-04-20 17:52 22.94475 54.81463 36765 ft 507 kts 72°
2026-04-20 17:52 22.95203 54.85177 36643 ft 501 kts 72°
2026-04-20 17:53 22.95931 54.88876 36440 ft 498 kts 72°
2026-04-20 17:53 22.96660 54.92548 36146 ft 497 kts 72°
2026-04-20 17:53 22.97384 54.96168 35693 ft 500 kts 73°
2026-04-20 17:53 22.98134 54.99917 35160 ft 503 kts 73°
2026-04-20 17:54 22.98860 55.03593 34656 ft 506 kts 74°
2026-04-20 17:54 22.99588 55.07321 34329 ft 504 kts 75°
2026-04-20 17:54 23.00320 55.11084 34056 ft 501 kts 75°
2026-04-20 17:54 23.01032 55.14729 33711 ft 499 kts 75°
2026-04-20 17:55 23.02011 55.18307 33134 ft 493 kts 62°
2026-04-20 17:55 23.03836 55.21431 32487 ft 489 kts 45°
2026-04-20 17:55 23.06366 55.23875 31884 ft 485 kts 30°
2026-04-20 17:55 23.09342 55.25572 31259 ft 482 kts 18°
2026-04-20 17:56 23.12572 55.26522 30554 ft 481 kts
2026-04-20 17:56 23.15900 55.26371 29732 ft 480 kts 345°
2026-04-20 17:56 23.18986 55.25028 28865 ft 481 kts 326°
2026-04-20 17:56 23.21537 55.22704 28148 ft 473 kts 314°
2026-04-20 17:57 23.24095 55.20473 27098 ft 479 kts 329°
2026-04-20 17:57 23.27276 55.19255 26103 ft 492 kts 349°
2026-04-20 17:57 23.30659 55.19282 25345 ft 497 kts
2026-04-20 17:57 23.33952 55.20502 25130 ft 503 kts 21°
2026-04-20 17:58 23.37218 55.21939 24953 ft 507 kts 20°
2026-04-20 17:58 23.40446 55.23478 24833 ft 503 kts 24°
2026-04-20 17:58 23.43563 55.25188 24839 ft 501 kts 26°
2026-04-20 17:58 23.46654 55.26973 24842 ft 503 kts 26°
2026-04-20 17:59 23.49741 55.28765 24836 ft 503 kts 26°
2026-04-20 17:59 23.52845 55.30542 24831 ft 503 kts 26°
2026-04-20 17:59 23.55956 55.32291 24832 ft 503 kts 25°
2026-04-20 17:59 23.59033 55.34002 24834 ft 503 kts 25°
2026-04-20 18:00 23.62155 55.35728 24833 ft 503 kts 25°
2026-04-20 18:00 23.65277 55.37452 24827 ft 503 kts 25°
2026-04-20 18:00 23.68404 55.39181 24826 ft 504 kts 25°
2026-04-20 18:00 23.71533 55.40912 24824 ft 503 kts 25°
2026-04-20 18:01 23.74664 55.42649 24826 ft 504 kts 25°
2026-04-20 18:01 23.77792 55.44385 24829 ft 504 kts 25°
2026-04-20 18:01 23.80916 55.46118 24831 ft 504 kts 25°
2026-04-20 18:01 23.84070 55.47809 24834 ft 503 kts 22°
2026-04-20 18:02 23.87317 55.49212 24831 ft 502 kts 17°
2026-04-20 18:02 23.90682 55.50228 24834 ft 500 kts 12°
2026-04-20 18:02 23.94063 55.51144 24838 ft 501 kts 13°
2026-04-20 18:02 23.97406 55.52201 24829 ft 502 kts 18°
2026-04-20 18:03 24.00601 55.53775 24831 ft 504 kts 27°
2026-04-20 18:03 24.03543 55.55772 24840 ft 505 kts 34°
2026-04-20 18:03 24.06289 55.58205 24834 ft 507 kts 41°
2026-04-20 18:03 24.08878 55.60830 24837 ft 507 kts 42°
2026-04-20 18:04 24.11465 55.63464 24836 ft 508 kts 41°
2026-04-20 18:04 24.14066 55.66092 24833 ft 508 kts 41°
2026-04-20 18:04 24.16674 55.68706 24837 ft 509 kts 41°
2026-04-20 18:04 24.19297 55.71316 24832 ft 509 kts 41°
2026-04-20 18:05 24.24541 55.76516 24835 ft 508 kts 41°
2026-04-20 18:05 24.27142 55.79096 24824 ft 495 kts 41°
2026-04-20 18:05 24.29625 55.81563 24786 ft 480 kts 41°
2026-04-20 18:06 24.32090 55.84014 24139 ft 476 kts 41°
2026-04-20 18:06 24.34532 55.86444 23513 ft 471 kts 41°
2026-04-20 18:06 24.36949 55.88850 22876 ft 466 kts 41°
2026-04-20 18:06 24.39336 55.91229 22245 ft 461 kts 41°
2026-04-20 18:07 24.41695 55.93584 21624 ft 456 kts 40°
2026-04-20 18:07 24.44028 55.95917 20991 ft 451 kts 40°
2026-04-20 18:07 24.46337 55.98227 20367 ft 446 kts 40°
2026-04-20 18:07 24.48624 56.00514 19768 ft 442 kts 40°
2026-04-20 18:08 24.50881 56.02775 19164 ft 437 kts 40°
2026-04-20 18:08 24.53084 56.04981 18582 ft 432 kts 40°
2026-04-20 18:08 24.55298 56.07197 17976 ft 429 kts 40°
2026-04-20 18:08 24.57496 56.09378 17389 ft 420 kts 38°
2026-04-20 18:09 24.59868 56.11194 16808 ft 412 kts 26°
2026-04-20 18:09 24.62466 56.12445 16235 ft 405 kts 17°
2026-04-20 18:09 24.65180 56.13202 15657 ft 400 kts
2026-04-20 18:09 24.67921 56.13640 15091 ft 396 kts
2026-04-20 18:10 24.70637 56.14099 14518 ft 393 kts
2026-04-20 18:10 24.73330 56.14582 13955 ft 390 kts
2026-04-20 18:10 24.75993 56.15062 13396 ft 383 kts
2026-04-20 18:10 24.78620 56.15144 13052 ft 372 kts 354°
2026-04-20 18:11 24.81124 56.14670 12895 ft 358 kts 345°
2026-04-20 18:11 24.83428 56.13785 12723 ft 345 kts 335°
2026-04-20 18:11 24.85560 56.12688 12590 ft 332 kts 335°
2026-04-20 18:11 24.87596 56.11652 12448 ft 322 kts 335°
2026-04-20 18:12 24.89600 56.10642 12325 ft 311 kts 335°
2026-04-20 18:12 24.91523 56.09680 12309 ft 297 kts 335°
2026-04-20 18:12 24.93370 56.08759 12226 ft 286 kts 335°
2026-04-20 18:12 24.95152 56.07873 12111 ft 276 kts 335°
2026-04-20 18:13 24.96855 56.07005 11977 ft 263 kts 331°
2026-04-20 18:13 24.98238 56.05753 11816 ft 256 kts 313°
2026-04-20 18:13 24.99422 56.04257 11641 ft 262 kts 309°
2026-04-20 18:13 25.00281 56.02463 11261 ft 269 kts 290°
2026-04-20 18:14 25.00800 56.00481 10925 ft 270 kts 286°
2026-04-20 18:14 25.01262 55.98468 10566 ft 270 kts 285°
2026-04-20 18:14 25.01726 55.96465 10232 ft 269 kts 286°
2026-04-20 18:14 25.02208 55.94464 9884 ft 270 kts 286°
2026-04-20 18:15 25.02692 55.92494 9549 ft 270 kts 286°
2026-04-20 18:15 25.03197 55.90479 9205 ft 270 kts 286°
2026-04-20 18:15 25.03696 55.88518 8866 ft 269 kts 286°
2026-04-20 18:15 25.04209 55.86537 8533 ft 268 kts 286°
2026-04-20 18:16 25.04722 55.84561 8195 ft 268 kts 286°
2026-04-20 18:16 25.05239 55.82585 7871 ft 268 kts 286°
2026-04-20 18:16 25.05754 55.80613 7537 ft 267 kts 286°
2026-04-20 18:16 25.06268 55.78640 7203 ft 267 kts 286°
2026-04-20 18:17 25.06782 55.76675 6871 ft 266 kts 286°
2026-04-20 18:17 25.07295 55.74714 6537 ft 265 kts 286°
2026-04-20 18:17 25.07806 55.72755 6201 ft 266 kts 286°
2026-04-20 18:17 25.08318 55.70798 5874 ft 265 kts 286°
2026-04-20 18:18 25.08830 55.68844 5538 ft 265 kts 286°
2026-04-20 18:18 25.09339 55.66888 5202 ft 265 kts 286°
2026-04-20 18:18 25.09843 55.64954 4874 ft 265 kts 286°
2026-04-20 18:18 25.10520 55.63081 4531 ft 263 kts 298°
2026-04-20 18:19 25.11453 55.61351 4218 ft 262 kts 301°
2026-04-20 18:19 25.12407 55.59673 4074 ft 250 kts 301°
2026-04-20 18:19 25.13299 55.58085 3826 ft 242 kts 301°
2026-04-20 18:19 25.14184 55.56492 3562 ft 244 kts 301°
2026-04-20 18:20 25.15067 55.54896 3207 ft 243 kts 301°
2026-04-20 18:20 25.15945 55.53312 2883 ft 242 kts 301°
2026-04-20 18:20 25.16817 55.51738 2556 ft 233 kts 300°
2026-04-20 18:20 25.17628 55.50274 2270 ft 215 kts 301°
2026-04-20 18:21 25.18383 55.48908 1992 ft 203 kts 301°
2026-04-20 18:21 25.19089 55.47636 1714 ft 186 kts 301°
2026-04-20 18:21 25.19721 55.46495 1476 ft 163 kts 301°
2026-04-20 18:21 25.20287 55.45473 1279 ft 153 kts 301°
2026-04-20 18:22 25.20841 55.44469 1091 ft 153 kts 301°
2026-04-20 18:22 25.21396 55.43466 885 ft 152 kts 301°
2026-04-20 18:22 25.21940 55.42473 674 ft 150 kts 302°
2026-04-20 18:22 25.22480 55.41495 492 ft 150 kts 301°
2026-04-20 18:23 25.23026 55.40514 299 ft 150 kts 301°
2026-04-20 18:23 25.23568 55.39535 95 ft 148 kts 301°
2026-04-20 18:23 25.24083 55.38599 29 ft 132 kts 301°
2026-04-20 18:23 25.24481 55.37881 29 ft 90 kts 301°
2026-04-20 18:24 25.24726 55.37433 27 ft 50 kts 297°
2026-04-20 18:24 25.24784 55.37121 28 ft 34 kts 272°
2026-04-20 18:24 25.24790 55.37006 27 ft 0 kts 278°
2026-04-20 18:25 25.24790 55.37001 27 ft 1 kts 269°
2026-04-20 18:25 25.24785 55.36987 27 ft 2 kts 248°
2026-04-20 18:25 25.24773 55.36967 27 ft 4 kts 234°
2026-04-20 18:25 25.24749 55.36943 26 ft 5 kts 212°
2026-04-20 18:26 25.24726 55.36930 26 ft 6 kts 207°
2026-04-20 18:26 25.24689 55.36907 29 ft 6 kts 212°
2026-04-20 18:26 25.24649 55.36879 26 ft 7 kts 211°
2026-04-20 18:26 25.24603 55.36849 31 ft 8 kts 211°
2026-04-20 18:27 25.24553 55.36815 30 ft 9 kts 211°
2026-04-20 18:27 25.24523 55.36795 26 ft 0 kts 211°
2026-04-20 18:28 25.24518 55.36792 29 ft 1 kts 211°
2026-04-20 18:28 25.24507 55.36784 27 ft 3 kts 211°
2026-04-20 18:28 25.24487 55.36771 29 ft 6 kts 211°
2026-04-20 18:28 25.24442 55.36733 31 ft 9 kts 223°
2026-04-20 18:29 25.24403 55.36680 31 ft 9 kts 238°
2026-04-20 18:29 25.24379 55.36614 29 ft 9 kts 256°
2026-04-20 18:29 25.24374 55.36541 30 ft 10 kts 273°
2026-04-20 18:29 25.24390 55.36469 31 ft 10 kts 291°
2026-04-20 18:30 25.24422 55.36401 29 ft 10 kts 300°
2026-04-20 18:30 25.24460 55.36333 28 ft 11 kts 302°
2026-04-20 18:30 25.24499 55.36263 29 ft 11 kts 302°
2026-04-20 18:30 25.24562 55.36229 27 ft 11 kts 352°
2026-04-20 18:31 25.24625 55.36184 29 ft 11 kts 307°
2026-04-20 18:31 25.24681 55.36126 29 ft 12 kts 352°
2026-04-20 18:31 25.24702 55.36133 27 ft 0 kts 29°
2026-04-20 18:31 25.24708 55.36137 32 ft 1 kts 31°
2026-04-20 18:32 25.24720 55.36145 26 ft 3 kts 30°
2026-04-20 18:32 25.24733 55.36154 28 ft 1 kts 31°
2026-04-20 18:32 25.24736 55.36156 26 ft 1 kts 31°
2026-04-20 18:32 25.24741 55.36159 30 ft 0 kts 31°
2026-04-20 18:33 25.24742 55.36159 26 ft 0 kts 31°